Volver al catálogo

THOR ABLESTAR DEB

ActivoLEO
NORAD 3744·DEBRIS·🇺🇸 United States

Lanzado Jun 29, 1961 desde Cape Canaveral Space Force Station

Loading…

Próximos Pases (próximas 24 horas)

TLE

ActualizadoSource: Space-Track

Época: Sep 14, 2026, 09:47 UTC

1 03744U 61015JC  26257.40768236  .00001870  00000-0  12045-2 0  9999
2 03744  66.9737 252.8726 0115897  39.4639 321.4816 14.01922908893039

Sigue THOR ABLESTAR DEB en tiempo real con AllMySat

Download on the App Store